EW3197 Weather Reports


Display with metric or nautical units.
time (UTC)temp
F
wind
direction
speed
MPH
gust
MPH
rain 1hr
in
rain 24hr
in
rain mn
in
humidity
%
barometer
mb
20260509005704 43 199 0.0 0.0 0.00 0.01 0.01 77 1012.5
20260509005204 43 199 0.0 0.0 0.00 0.01 0.01 76 1012.4
20260509003204 45 199 0.0 0.0 0.00 0.01 0.01 74 1012.2
20260509002704 45 199 0.0 0.0 0.00 0.01 0.01 72 1012.1
20260509002204 46 199 0.0 0.0 0.00 0.01 0.01 71 1012.1
20260509001204 47 199 0.0 0.0 0.00 0.01 0.01 68 1012.0
20260509000704 48 199 0.0 0.0 0.00 0.01 0.01 66 1011.9
20260508235705 49 199 0.0 0.0 0.00 0.01 0.01 64 1011.8
20260508235204 50 281 0.0 0.0 0.00 0.01 0.01 61 1011.8
20260508234704 51 286 0.0 0.0 0.00 0.01 0.01 58 1011.8
20260508234204 52 286 0.0 1.0 0.00 0.01 0.01 56 1011.7
20260508233704 52 286 0.0 1.0 0.00 0.01 0.01 55 1011.6
20260508233204 52 286 1.0 2.0 0.00 0.01 0.01 53 1011.4
20260508232704 53 286 1.0 3.0 0.00 0.01 0.01 52 1011.4
20260508232204 53 288 1.0 2.0 0.00 0.01 0.01 52 1011.3
20260508231704 53 288 2.0 6.0 0.00 0.01 0.01 51 1011.3
20260508231204 53 233 2.0 7.0 0.00 0.01 0.01 51 1011.4
20260508230704 53 298 2.0 9.0 0.00 0.01 0.01 49 1011.4
20260508230204 54 313 3.0 7.0 0.00 0.01 0.01 51 1011.3
20260508225204 54 318 1.0 9.0 0.00 0.01 0.01 50 1011.3
20260508224704 54 314 2.0 6.0 0.00 0.01 0.01 52 1011.4
20260508224204 54 320 2.0 8.0 0.00 0.01 0.01 50 1011.4
20260508223704 55 216 2.0 6.0 0.00 0.01 0.01 49 1011.3
20260508223204 55 233 2.0 6.0 0.00 0.01 0.01 50 1011.3
20260508222205 55 285 2.0 6.0 0.00 0.01 0.01 48 1011.2
20260508221704 55 278 3.0 7.0 0.00 0.01 0.01 49 1011.2
20260508221204 55 249 2.0 10.0 0.00 0.01 0.01 49 1011.2
20260508220704 55 297 3.0 12.0 0.00 0.01 0.01 51 1011.2
20260508220203 55 279 3.0 12.0 0.00 0.01 0.01 51 1011.3
20260508215704 56 242 4.0 8.0 0.00 0.01 0.01 50 1011.2
20260508214703 56 235 3.0 8.0 0.00 0.01 0.01 51 1011.1
20260508212704 56 226 4.0 10.0 0.00 0.01 0.01 50 1011.2
20260508212204 57 325 3.0 10.0 0.00 0.01 0.01 49 1011.2
20260508210704 56 215 3.0 9.0 0.00 0.01 0.01 53 1011.2
20260508205704 57 265 2.0 5.0 0.00 0.01 0.01 55 1011.2
20260508205204 56 216 2.0 5.0 0.00 0.01 0.01 56 1011.3
20260508204704 55 208 3.0 7.0 0.00 0.01 0.01 56 1011.3
20260508204204 55 225 2.0 7.0 0.00 0.01 0.01 58 1011.3
20260508203705 55 243 3.0 8.0 0.00 0.01 0.01 54 1011.4
20260508203204 56 213 2.0 9.0 0.00 0.01 0.01 56 1011.4
20260508202704 55 252 5.0 10.0 0.00 0.01 0.01 56 1011.4
20260508202204 55 248 5.0 9.0 0.00 0.01 0.01 56 1011.5
20260508201704 56 278 1.0 5.0 0.00 0.01 0.01 62 1011.5
20260508201205 55 216 5.0 14.0 0.00 0.01 0.01 60 1011.5
20260508200704 55 229 3.0 6.0 0.00 0.01 0.01 59 1011.5
20260508195704 53 223 3.0 10.0 0.00 0.01 0.01 62 1011.5
20260508195205 55 289 3.0 9.0 0.00 0.01 0.01 62 1011.4
20260508194704 55 257 2.0 7.0 0.00 0.01 0.01 64 1011.5
20260508194204 54 287 3.0 7.0 0.00 0.01 0.01 65 1011.4
20260508193704 53 205 2.0 3.0 0.00 0.01 0.01 66 1011.3
20260508192704 52 238 2.0 5.0 0.00 0.01 0.01 70 1011.4
20260508191705 51 221 2.0 5.0 0.00 0.01 0.01 71 1011.6
20260508191205 51 225 1.0 2.0 0.00 0.01 0.01 75 1011.7
20260508190705 50 225 1.0 3.0 0.00 0.01 0.01 74 1011.7
20260508190204 49 224 1.0 3.0 0.00 0.01 0.01 77 1011.9
20260508185204 47 224 0.0 2.0 0.00 0.01 0.01 77 1012.2
20260508184705 47 224 0.0 2.0 0.00 0.01 0.01 76 1012.2
20260508184204 47 224 2.0 5.0 0.00 0.01 0.01 74 1012.2
20260508183704 47 293 2.0 5.0 0.00 0.01 0.01 73 1012.2
20260508183204 48 303 2.0 6.0 0.00 0.01 0.01 73 1012.2
20260508182704 48 219 2.0 6.0 0.00 0.01 0.01 72 1012.1
20260508182204 48 234 2.0 7.0 0.00 0.01 0.01 69 1012.1
20260508181705 49 227 1.0 3.0 0.00 0.01 0.01 70 1012.1
20260508181204 48 239 1.0 3.0 0.00 0.01 0.01 69 1012.0
20260508180704 48 239 1.0 3.0 0.01 0.01 0.01 70 1012.0
20260508180203 49 237 2.0 3.0 0.01 0.01 0.01 70 1011.9
20260508175704 48 282 2.0 3.0 0.01 0.01 0.01 71 1011.9
20260508175205 48 238 2.0 3.0 0.01 0.01 0.01 70 1011.8
20260508174704 48 238 1.0 3.0 0.01 0.01 0.01 72 1011.7
20260508174204 48 238 2.0 3.0 0.01 0.01 0.01 73 1011.7
20260508173704 47 238 2.0 3.0 0.01 0.01 0.01 73 1011.9
20260508173204 47 239 0.0 3.0 0.01 0.01 0.01 74 1012.0
20260508172703 47 241 2.0 3.0 0.01 0.01 0.01 74 1012.0
20260508172204 47 271 1.0 3.0 0.01 0.01 0.01 74 1012.0
20260508171204 47 275 1.0 3.0 0.01 0.01 0.01 73 1011.9
20260508170703 48 292 1.0 3.0 0.00 0.00 0.00 70 1012.0
20260508170204 49 247 3.0 7.0 0.00 0.00 0.00 66 1012.0
20260508164204 51 264 2.0 8.0 0.00 0.00 0.00 61 1012.0
20260508163704 51 228 2.0 9.0 0.00 0.00 0.00 59 1012.0
20260508163204 52 265 2.0 9.0 0.00 0.00 0.00 60 1012.0
20260508162704 52 284 3.0 12.0 0.00 0.00 0.00 60 1011.8
20260508162204 52 259 2.0 9.0 0.00 0.00 0.00 59 1011.7
20260508161704 53 252 4.0 12.0 0.00 0.00 0.00 53 1011.5
20260508160704 55 293 2.0 9.0 0.00 0.00 0.00 46 1011.1
20260508160204 55 251 3.0 8.0 0.00 0.00 0.00 48 1010.8
20260508155704 55 149 2.0 8.0 0.00 0.00 0.00 49 1010.7
20260508155204 56 227 2.0 10.0 0.00 0.00 0.00 46 1010.7
20260508154704 56 290 2.0 5.0 0.00 0.00 0.00 48 1010.7
20260508154204 56 194 3.0 5.0 0.00 0.00 0.00 48 1010.7
20260508153704 56 263 2.0 8.0 0.00 0.00 0.00 53 1010.7
20260508153204 56 322 2.0 6.0 0.00 0.00 0.00 49 1010.9
20260508152704 55 301 2.0 5.0 0.00 0.00 0.00 52 1010.9
20260508152203 54 212 3.0 5.0 0.00 0.00 0.00 50 1010.9
20260508151204 54 285 3.0 5.0 0.00 0.00 0.00 50 1011.2
20260508150704 55 251 4.0 12.0 0.00 0.00 0.00 52 1011.3
20260508150204 55 274 1.0 3.0 0.00 0.00 0.00 52 1011.2
20260508145704 55 270 2.0 8.0 0.00 0.00 0.00 52 1011.1
20260508145205 55 265 3.0 6.0 0.00 0.00 0.00 54 1011.0
20260508144704 55 285 3.0 9.0 0.00 0.00 0.00 54 1011.1
20260508144203 54 236 2.0 10.0 0.00 0.00 0.00 55 1011.1
20260508143705 53 241 1.0 6.0 0.00 0.00 0.00 57 1011.3
20260508143204 53 236 1.0 9.0 0.00 0.00 0.00 57 1011.3
20260508140703 52 200 2.0 6.0 0.00 0.00 0.00 56 1011.0
20260508140204 52 299 2.0 5.0 0.00 0.00 0.00 57 1011.2
20260508135704 51 251 2.0 5.0 0.00 0.00 0.00 60 1011.2
20260508135205 51 233 2.0 3.0 0.00 0.00 0.00 60 1011.2
20260508134704 50 232 3.0 10.0 0.00 0.00 0.00 60 1011.3
20260508133704 49 226 1.0 5.0 0.00 0.00 0.00 61 1011.5
20260508133204 49 191 1.0 6.0 0.00 0.00 0.00 62 1011.6
20260508132705 50 255 2.0 7.0 0.00 0.00 0.00 62 1011.6
20260508132204 49 201 2.0 6.0 0.00 0.00 0.00 61 1011.6
20260508131703 49 295 1.0 3.0 0.00 0.00 0.00 61 1011.6
20260508131204 49 297 1.0 2.0 0.00 0.00 0.00 63 1011.6
20260508130206 48 292 1.0 6.0 0.00 0.00 0.00 64 1012.1
20260508125705 48 218 2.0 6.0 0.00 0.00 0.00 62 1012.1
20260508125205 48 279 2.0 6.0 0.00 0.00 0.00 64 1012.2
20260508124704 48 238 3.0 6.0 0.00 0.00 0.00 62 1012.2
20260508123704 48 232 2.0 6.0 0.00 0.00 0.00 62 1012.2
20260508123205 48 229 3.0 7.0 0.00 0.00 0.00 61 1012.1
20260508122705 48 230 2.0 5.0 0.00 0.00 0.00 62 1012.0
20260508122205 48 315 3.0 10.0 0.00 0.00 0.00 61 1012.0
20260508121706 48 292 3.0 8.0 0.00 0.00 0.00 63 1012.0
20260508121205 48 224 1.0 5.0 0.00 0.00 0.00 62 1011.9
20260508120704 47 289 1.0 8.0 0.00 0.00 0.00 62 1011.9
20260508120205 47 276 2.0 6.0 0.00 0.00 0.00 64 1011.9
20260508115704 47 286 2.0 3.0 0.00 0.00 0.00 65 1011.9
20260508115204 46 278 1.0 3.0 0.00 0.00 0.00 67 1011.8
20260508114204 45 276 1.0 3.0 0.00 0.00 0.00 75 1011.9
20260508113704 44 276 0.0 2.0 0.00 0.00 0.00 78 1011.9
20260508112704 42 276 0.0 1.0 0.00 0.00 0.00 78 1012.1
20260508112205 42 276 0.0 0.0 0.00 0.00 0.00 78 1012.0
20260508111704 41 276 0.0 0.0 0.00 0.00 0.00 79 1011.9
20260508111204 41 276 0.0 0.0 0.00 0.00 0.00 79 1011.9
20260508110705 41 276 0.0 0.0 0.00 0.00 0.00 80 1011.8
20260508110204 40 276 0.0 0.0 0.00 0.00 0.00 81 1011.8
20260508105703 40 276 0.0 0.0 0.00 0.00 0.00 82 1011.8
20260508105204 40 276 0.0 0.0 0.00 0.00 0.00 82 1011.7
20260508104704 39 276 0.0 0.0 0.00 0.00 0.00 82 1011.7
20260508104204 39 276 0.0 0.0 0.00 0.00 0.00 83 1011.5
20260508103704 38 276 0.0 0.0 0.00 0.00 0.00 83 1011.4
20260508103205 38 276 0.0 0.0 0.00 0.00 0.00 84 1011.4
20260508102704 38 276 0.0 0.0 0.00 0.00 0.00 84 1011.3
20260508102204 37 276 0.0 0.0 0.00 0.00 0.00 84 1011.2
20260508101706 37 276 0.0 0.0 0.00 0.00 0.00 84 1011.2
20260508101204 37 276 0.0 0.0 0.00 0.00 0.00 84 1011.1
20260508100704 36 276 0.0 0.0 0.00 0.00 0.00 84 1011.0
20260508100204 37 276 0.0 0.0 0.00 0.00 0.00 84 1010.9
20260508095204 36 276 0.0 0.0 0.00 0.00 0.00 84 1010.8
20260508094204 37 276 0.0 0.0 0.00 0.00 0.00 84 1010.8
20260508093705 37 276 0.0 0.0 0.00 0.00 0.00 83 1010.9
20260508093204 37 276 0.0 0.0 0.00 0.00 0.00 83 1010.8
20260508092204 37 276 0.0 0.0 0.00 0.00 0.00 83 1010.7
20260508091704 38 276 0.0 0.0 0.00 0.00 0.00 83 1010.6
20260508091204 38 276 0.0 0.0 0.00 0.00 0.00 82 1010.5
20260508090704 38 276 0.0 0.0 0.00 0.00 0.00 82 1010.5
20260508085704 39 276 0.0 0.0 0.00 0.00 0.00 81 1010.6
20260508084704 40 276 0.0 0.0 0.00 0.00 0.00 81 1010.5
20260508084204 40 276 0.0 0.0 0.00 0.00 0.00 81 1010.5
20260508083705 40 276 0.0 0.0 0.00 0.00 0.00 81 1010.4
20260508083204 41 276 0.0 0.0 0.00 0.00 0.00 80 1010.4
20260508082704 41 276 0.0 0.0 0.00 0.00 0.00 80 1010.5
20260508082204 41 276 0.0 0.0 0.00 0.00 0.00 81 1010.5
20260508081704 41 276 0.0 0.0 0.00 0.00 0.00 81 1010.4
20260508081204 41 276 0.0 0.0 0.00 0.00 0.00 81 1010.4
20260508080204 41 276 0.0 0.0 0.00 0.00 0.00 80 1010.4
20260508075704 41 276 0.0 0.0 0.00 0.00 0.00 80 1010.4
20260508074704 40 276 0.0 0.0 0.00 0.00 0.00 81 1010.2
20260508074204 40 276 0.0 0.0 0.00 0.00 0.00 81 1010.3
20260508073704 40 276 0.0 0.0 0.00 0.00 0.00 82 1010.3
20260508072705 40 276 0.0 0.0 0.00 0.00 0.00 82 1010.2
20260508072204 40 276 0.0 0.0 0.00 0.00 0.00 82 1010.3
20260508070204 39 276 0.0 0.0 0.00 0.00 0.00 83 1010.3
20260508065703 39 276 0.0 0.0 0.00 0.00 0.00 83 1010.3
20260508065205 39 276 0.0 0.0 0.00 0.00 0.00 83 1010.3
20260508064703 38 276 0.0 0.0 0.00 0.00 0.00 83 1010.3
20260508064204 38 276 0.0 0.0 0.00 0.00 0.00 82 1010.2
20260508063704 38 276 0.0 0.0 0.00 0.00 0.00 82 1010.2
20260508063204 38 276 0.0 0.0 0.00 0.00 0.00 82 1010.3
20260508062704 38 276 0.0 0.0 0.00 0.00 0.00 82 1010.2
20260508062205 38 276 0.0 0.0 0.00 0.00 0.00 82 1010.1
20260508061204 38 276 0.0 0.0 0.00 0.00 0.00 82 1009.7
20260508060204 37 276 0.0 0.0 0.00 0.00 0.00 83 1009.4
20260508055205 38 276 0.0 0.0 0.00 0.00 0.00 82 1009.6
20260508054704 38 276 0.0 0.0 0.00 0.00 0.00 82 1009.6
20260508054204 38 276 0.0 0.0 0.00 0.00 0.00 82 1009.6
20260508053704 38 276 0.0 0.0 0.00 0.00 0.00 82 1009.7
20260508053204 38 276 0.0 0.0 0.00 0.00 0.00 83 1009.7
20260508052204 37 276 0.0 0.0 0.00 0.00 0.00 83 1009.6
20260508051704 37 276 0.0 0.0 0.00 0.00 0.00 83 1009.6
20260508051204 37 276 0.0 0.0 0.00 0.00 0.00 84 1009.6
20260508050704 36 276 0.0 0.0 0.00 0.00 0.00 83 1009.5
20260508045704 36 276 0.0 0.0 0.00 0.00 0.00 83 1009.6
20260508045203 36 276 0.0 0.0 0.00 0.00 0.00 83 1009.6
20260508044704 36 276 0.0 0.0 0.00 0.00 0.00 83 1009.6
20260508044204 36 276 0.0 0.0 0.00 0.00 0.00 83 1009.6
20260508043704 36 276 0.0 0.0 0.00 0.00 0.00 83 1009.6
20260508043204 36 276 0.0 0.0 0.00 0.00 0.00 83 1009.8
20260508042704 36 276 0.0 0.0 0.00 0.00 0.00 83 1009.8
20260508042204 36 276 0.0 0.0 0.00 0.00 0.00 82 1009.9
20260508041704 36 276 0.0 0.0 0.00 0.00 0.00 82 1009.8
20260508041204 37 276 0.0 0.0 0.00 0.00 0.00 82 1009.7
20260508040704 37 276 0.0 0.0 0.00 0.00 0.00 82 1009.7
20260508040204 37 276 0.0 0.0 0.00 0.00 0.00 82 1009.7
20260508035703 37 276 0.0 0.0 0.00 0.00 0.00 82 1009.7
20260508034704 37 276 0.0 0.0 0.00 0.00 0.00 82 1009.8
20260508034203 37 276 0.0 0.0 0.00 0.00 0.00 81 1009.9
20260508033204 38 276 0.0 0.0 0.00 0.00 0.00 81 1009.9
20260508032704 38 276 0.0 0.0 0.00 0.00 0.00 80 1009.9
20260508032204 38 276 0.0 0.0 0.00 0.00 0.00 80 1010.0
20260508031704 38 276 0.0 0.0 0.00 0.00 0.00 80 1010.0
20260508031203 38 276 0.0 0.0 0.00 0.00 0.00 80 1010.0
20260508030704 38 276 0.0 0.0 0.00 0.00 0.00 80 1009.9
20260508025704 39 276 0.0 0.0 0.00 0.00 0.00 79 1010.0
20260508025204 39 276 0.0 0.0 0.00 0.00 0.00 79 1010.1
20260508024705 39 276 0.0 0.0 0.00 0.00 0.00 79 1010.1
20260508024203 39 276 0.0 0.0 0.00 0.00 0.00 78 1010.0
20260508023704 40 276 0.0 0.0 0.00 0.00 0.00 78 1010.0
20260508023204 40 276 0.0 0.0 0.00 0.00 0.00 78 1010.1
20260508022204 40 276 0.0 0.0 0.00 0.00 0.00 77 1010.0
20260508021704 41 276 0.0 0.0 0.00 0.00 0.00 76 1010.1
20260508021204 41 276 0.0 0.0 0.00 0.00 0.00 76 1010.1
20260508020204 41 276 0.0 0.0 0.00 0.00 0.00 76 1009.9
20260508015204 42 276 0.0 0.0 0.00 0.00 0.00 75 1009.8
20260508014706 42 276 0.0 0.0 0.00 0.00 0.00 74 1009.8
20260508014204 43 276 0.0 0.0 0.00 0.01 0.00 73 1009.8
20260508013704 43 276 0.0 0.0 0.00 0.01 0.00 72 1009.7
20260508012704 43 276 0.0 0.0 0.00 0.01 0.00 70 1009.6
20260508012204 44 276 0.0 0.0 0.00 0.01 0.00 69 1009.6
20260508011704 44 276 0.0 0.0 0.00 0.02 0.00 68 1009.6
20260508010704 45 276 0.0 0.0 0.00 0.03 0.00 66 1009.4
20260508010204 46 276 0.0 0.0 0.00 0.03 0.00 65 1009.3